Presure
151 160 144 139 154 138 157 157 144 151 147 158 164 151 146 165 154 164 159 178 185 154 191 162 212 185 146 208 191 132 157 274 458 338 198 164 399 168 194 145 159 147 153 162 143
144 151 140 137 145 118 168 132 165 146 147 144 158 147 160 142 158 162 148 190 143 184 160 145 159 198 131 202 174 152 465 252 336 410 399 188 294 245 206 175 152 146 122 198 142
142 124 144 149 136 146 172 155 143 141 146 138 162 153 166 154 175 146 152 171 181 168 205 154 189 212 151 159 245 321 162 234 178 389 387 258 211 418 148 184 173 172 128 127 149
129 133 139 135 141 169 156 134 152 146 138 148 154 167 172 145 159 132 190 188 184 196 187 173 167 195 133 181 186 98 148 150 303 118 347 367 170 386 279 178 245 168 117 117 145
124 124 133 129 147 171 159 170 152 151 127 166 154 153 151 171 166 141 124 192 172 183 190 171 184 208 199 199 202 136 443 419 297 381 367 183 214 461 150 152 172 189 171 153 120
149 134 136 164 169 174 138 151 137 156 155 145 155 156 153 149 158 159 137 157 203 167 181 202 198 207 221 200 252 131 202 298 191 140 244 312 260 483 347 243 325 147 154 160 132
133 142 165 161 157 181 159 151 159 146 147 150 148 157 148 149 159 180 121 127 183 177 197 187 180 226 174 201 130 200 128 394 219 159 174 363 451 477 484 420 229 185 197 159 135
141 141 148 148 146 141 151 163 152 139 141 165 152 155 176 146 165 173 172 185 139 201 190 199 218 121 227 139 188 166 201 383 330 132 169 430 341 190 138 181 381 129 168 139 165
142 143 156 145 141 139 158 148 148 133 145 162 158 154 153 126 140 170 166 169 178 181 183 197 182 166 133 232 319 110 257 223 394 169 153 156 456 141 162 162 144 292 186 152 172
152 141 151 136 144 151 148 169 165 139 147 147 161 147 142 145 152 135 160 189 173 131 209 186 225 195 237 191 126 135 151 273 246 169 303 169 122 438 134 387 350 307 123 130 183
139 161 141 141 128 146 163 148 154 153 166 164 140 145 149 160 146 153 170 134 162 168 210 228 152 214 160 273 133 397 367 392 147 140 163 152 165 150 359 138 171 193 176 204 110
148 144 150 154 137 159 155 165 136 146 143 139 165 148 131 129 143 161 163 169 178 203 177 183 225 225 210 177 343 339 361 306 278 158 365 142 148 357 436 405 125 169 115 145 181
148 149 162 135 156 134 141 171 141 142 142 140 138 125 134 149 159 156 157 188 180 182 180 221 197 221 170 212 277 381 152 262 227 391 151 371 373 368 386 404 290 155 117 130 171
139 142 140 140 160 134 148 147 144 146 139 157 168 141 122 155 164 166 177 196 170 196 200 173 209 227 216 154 192 407 338 302 140 135 368 364 345 343 350 376 367 162 182 162 156
132 153 127 165 137 167 138 131 149 135 160 152 121 144 170 169 162 172 149 166 194 161 218 232 205 223 235 146 249 326 322 308 124 167 362 346 346 337 332 345 384 335 163 147 129
151 156 137 135 152 139 153 127 133 140 159 144 159 153 158 163 162 145 156 176 185 196 139 224 209 202 239 413 150 344 151 231 291 347 351 342 338 344 340 333 350 327 265 172 142
145 151 133 123 139 130 135 131 149 140 141 130 150 152 146 157 144 159 152 168 168 175 204 162 239 262 216 272 326 225 215 227 328 347 342 339 336 327 336 329 370 401 326 199 153
146 118 141 138 147 160 151 145 151 161 154 139 142 151 164 170 148 167 167 153 198 208 219 185 174 159 296 410 420 223 207 377 292 348 341 346 355 350 343 323 313 362 373 329 288
154 127 135 158 147 151 145 137 148 135 143 143 124 157 110 165 176 122 179 173 197 128 208 197 223 231 150 385 156 157 131 211 348 340 338 364 327 327 326 325 335 339 385 358 290
142 137 156 158 150 144 137 147 144 144 139 109 153 167 163 162 166 159 134 182 172 205 202 200 232 293 401 392 430 420 138 154 321 332 329 323 317 305 308 314 324 340 355 360 316
138 135 125 133 164 158 135 121 151 153 149 139 162 148 166 174 134 168 179 158 202 177 218 163 256 400 402 385 482 285 198 314 158 337 328 355 310 305 302 300 323 342 352 338 327
150 145 157 143 141 144 151 156 142 142 142 153 159 163 167 168 181 152 179 150 153 158 218 239 205 407 400 314 398 129 144 313 167 348 336 310 307 301 299 300 311 331 359 348 331
136 137 146 166 149 145 154 157 164 147 131 152 165 162 151 158 185 168 136 165 114 195 234 206 259 397 398 359 353 250 132 355 395 370 330 306 303 307 298 309 300 308 325 374 371
151 166 153 161 149 144 158 163 126 155 120 181 179 171 185 177 184 172 189 124 193 203 219 268 292 412 401 390 385 480 288 324 381 393 321 298 298 295 293 296 285 288 294 316 337
139 130 159 163 149 157 150 154 155 173 164 169 153 164 174 192 181 171 197 179 144 162 205 295 311 327 406 350 169 134 368 137 374 385 307 319 305 289 279 298 277 278 281 293 310
160 163 151 119 137 142 155 158 141 156 156 169 179 177 127 192 158 193 171 208 167 149 309 292 304 385 395 399 233 341 374 326 382 335 306 304 287 291 281 283 275 278 280 273 296
180 149 140 167 150 170 139 134 162 154 176 163 173 182 130 201 138 196 199 202 209 245 277 267 254 311 392 108 392 159 320 337 385 322 311 309 290 275 287 278 283 268 270 272 279
Wind_Speed
40 43 37 35 49 34 49 43 42 44 44 54 55 42 38 56 36 57 43 68 72 36 76 58 80 68 44 82 77 40 33 35 37 34 44 62 27 75 48 27 51 35 37 42 46
37 41 36 34 43 32 50 37 42 40 46 44 57 44 61 30 48 55 28 74 35 71 41 59 63 81 32 79 62 35 58 31 29 24 24 10 42 24 62 61 34 39 42 54 50
37 30 40 46 40 46 50 50 45 45 50 35 63 50 68 47 76 24 35 63 59 54 83 55 71 88 51 46 125 113 16 40 32 21 18 17 58 23 39 72 62 57 42 44 54
33 36 38 37 47 64 50 40 55 47 45 57 61 66 72 34 60 41 85 86 78 81 82 59 61 82 26 72 56 22 26 43 23 23 18 21 57 24 44 72 65 58 44 47 49
34 36 39 37 53 58 50 47 55 56 41 63 64 58 50 75 68 32 42 89 51 79 84 62 75 94 80 74 73 29 37 28 24 17 16 40 42 27 54 38 60 68 53 49 46
51 43 43 58 61 53 48 53 50 56 59 57 61 56 60 47 55 53 37 52 106 50 80 97 89 97 103 79 88 33 28 26 32 43 23 22 20 25 48 56 61 27 56 51 50
42 48 64 48 50 52 49 53 51 56 59 62 57 66 50 43 58 88 35 43 79 68 105 68 66 113 66 74 25 27 39 26 27 31 24 16 22 23 44 66 70 72 75 49 47
46 51 48 42 44 48 48 60 53 51 56 69 62 60 85 42 73 82 75 86 52 111 99 95 114 30 118 22 25 25 30 23 17 32 31 14 15 46 36 22 79 26 50 33 61
55 50 50 38 44 50 60 55 56 50 61 69 68 69 66 36 46 76 66 65 82 75 72 107 73 72 25 116 29 26 21 25 15 33 36 35 9 38 57 47 35 78 46 46 70
61 47 45 48 46 62 50 71 70 56 67 58 73 59 51 64 61 49 51 107 75 47 120 90 122 98 134 47 30 28 27 19 18 31 18 30 26 18 46 76 81 80 34 42 84
51 66 47 48 51 60 73 59 62 67 72 75 51 60 64 77 60 68 88 38 58 56 123 135 48 117 36 51 30 29 25 14 26 29 31 32 39 61 33 51 65 81 66 93 52
57 57 65 52 54 73 75 76 55 60 64 51 80 62 51 44 51 78 72 83 96 123 62 73 128 128 100 28 25 22 23 16 14 29 11 38 42 16 26 85 40 69 54 51 83
57 63 69 54 76 53 61 79 64 56 66 57 51 40 51 59 79 70 64 115 91 76 70 132 102 123 35 11 23 26 26 15 17 33 32 27 35 26 19 46 77 67 45 44 84
53 58 54 58 78 54 62 67 67 64 61 80 92 59 41 73 90 92 103 122 73 116 113 62 116 130 103 12 25 19 20 15 27 32 30 40 36 38 30 24 74 78 87 69 80
55 69 52 83 59 91 65 53 71 57 88 80 45 56 98 99 88 97 51 72 120 61 141 149 104 126 135 19 15 22 19 10 30 30 40 38 42 47 51 37 41 102 74 65 54
70 81 58 57 71 62 75 56 57 68 89 67 87 75 82 92 87 60 69 96 104 110 43 138 100 92 136 36 23 22 24 16 14 19 31 36 39 44 46 57 51 88 86 84 65
65 75 59 46 59 51 64 57 78 68 64 45 76 75 58 79 58 84 61 85 66 83 124 56 150 156 102 22 8 16 18 12 16 18 21 30 41 41 42 43 8 18 82 81 88
67 44 67 68 72 83 78 77 80 89 85 56 61 71 99 105 67 97 101 34 129 123 136 73 58 25 96 32 11 15 14 24 18 24 19 19 26 27 29 39 41 16 70 89 91
85 53 66 89 76 81 75 67 81 60 68 60 46 85 33 97 114 26 116 103 129 28 125 71 122 135 20 33 14 19 21 19 19 14 15 20 32 32 25 16 23 20 34 83 92
72 68 89 87 84 76 66 79 71 76 61 29 79 106 98 96 104 85 59 106 66 120 107 94 137 108 44 36 8 7 17 19 17 13 7 25 31 30 26 20 19 24 52 72 96
72 70 55 65 99 92 60 45 84 91 84 44 100 69 102 118 51 96 114 72 131 73 143 47 139 57 42 39 10 10 13 12 19 17 9 30 33 32 29 27 18 20 52 80 97
88 85 93 82 81 80 84 92 73 73 64 86 94 102 106 110 125 63 115 60 72 46 142 152 100 51 42 28 20 15 14 5 20 22 20 39 40 35 30 21 22 21 20 57 76
75 73 86 100 88 84 89 90 100 85 49 86 108 96 75 84 125 99 34 87 22 113 134 89 126 59 45 32 25 14 15 10 27 36 33 38 41 42 36 33 38 33 20 28 58
97 103 91 99 88 83 92 97 48 98 33 117 119 112 124 117 123 90 124 34 107 100 134 127 110 47 44 34 26 8 12 3 21 27 51 44 42 46 40 42 46 40 31 25 40
75 55 93 102 92 96 91 94 99 113 105 110 77 102 115 131 119 101 135 106 63 52 87 91 103 108 40 31 12 16 8 10 15 20 47 47 57 51 49 45 54 50 45 36 43
107 103 95 48 71 77 95 102 57 99 98 111 123 114 32 133 70 131 82 129 42 38 98 89 100 59 43 35 17 16 8 9 20 55 51 58 55 54 49 53 57 54 50 58 48
115 92 73 103 93 99 57 42 105 94 112 105 116 123 61 135 42 120 119 114 75 79 94 101 106 108 45 14 27 13 9 12 24 56 55 59 61 56 60 60 65 63 57 59 48
Wind_Direction
335 335 338 333 341 323 334 328 324 325 329 327 324 330 323 329 327 333 338 333 333 306 329 323 340 327 303 332 306 241 242 276 300 254 231 233 239 234 212 226 243 234 214 212 213
329 331 335 327 339 298 334 312 316 321 324 323 328 324 329 310 329 333 313 333 294 336 319 305 313 330 285 325 307 256 323 301 286 287 272 221 239 252 227 228 226 226 219 206 214
325 308 332 335 325 332 331 323 319 316 327 316 322 328 323 328 326 313 322 336 329 333 339 319 333 336 301 303 343 342 270 266 293 283 278 267 235 243 246 223 234 233 206 219 211
311 319 326 326 328 330 324 315 320 312 322 327 327 322 324 313 320 303 333 332 336 341 343 336 325 335 292 293 313 244 247 274 273 278 264 257 227 240 202 231 204 239 227 228 208
306 306 318 312 324 331 323 328 319 318 307 322 322 325 329 328 330 304 304 338 342 342 341 332 334 337 332 331 327 240 326 314 272 298 280 223 259 225 258 223 235 226 224 218 236
318 315 317 327 330 330 315 318 318 318 318 321 320 320 325 324 327 329 300 336 336 343 346 339 332 338 341 337 341 238 283 287 251 262 234 238 258 216 210 225 191 206 219 210 230
308 318 319 333 330 326 320 317 319 318 315 318 322 321 322 323 327 330 306 303 338 343 337 341 340 345 299 337 235 280 253 316 254 233 230 265 232 219 203 183 207 220 211 204 225
314 309 322 321 319 314 314 322 308 310 316 321 319 322 327 322 325 330 331 336 310 336 342 341 342 301 345 271 288 258 272 315 295 271 225 285 246 204 187 186 177 195 226 216 221
309 307 323 311 314 313 317 311 308 311 315 318 320 322 324 320 324 329 331 343 343 343 349 341 344 337 289 343 318 287 315 260 308 236 234 234 235 251 216 214 239 187 202 215 213
303 304 309 304 306 314 310 318 315 314 313 318 319 321 321 323 327 326 335 333 339 299 334 345 341 338 346 337 266 266 267 297 273 245 260 217 243 194 218 189 191 186 221 210 204
296 303 301 303 298 310 317 307 313 308 319 316 315 317 324 324 327 328 332 311 341 346 335 337 301 345 302 311 274 344 340 333 248 248 239 233 227 225 215 254 210 204 202 200 207
300 299 303 302 302 312 312 316 308 312 314 316 317 318 317 321 324 334 339 334 332 332 341 344 342 344 337 298 334 343 346 311 253 242 155 238 238 172 185 184 204 219 219 217 204
295 297 302 294 309 302 306 313 309 313 313 316 313 308 323 328 327 331 335 328 336 339 347 339 345 344 312 309 320 353 259 298 257 130 257 139 126 120 138 191 198 226 239 239 209
285 291 292 291 306 301 302 303 308 311 312 315 319 317 321 325 327 325 328 328 340 335 337 326 342 345 342 264 310 354 343 323 252 257 145 135 151 151 152 179 193 215 204 215 210
284 296 293 302 295 307 302 303 307 307 314 311 316 318 318 320 323 327 318 338 332 319 333 334 344 338 345 288 291 333 336 185 269 270 146 154 151 163 173 178 201 190 214 222 239
291 297 285 291 298 298 302 300 306 308 312 314 313 321 322 322 329 328 335 335 334 331 308 335 332 336 341 354 281 340 275 252 199 171 161 164 168 167 179 190 191 191 202 204 226
282 291 288 293 296 300 298 299 303 307 310 317 317 321 325 325 320 330 333 335 333 337 334 316 335 340 341 323 317 280 292 254 188 185 187 176 178 190 185 199 154 204 195 203 201
281 290 284 288 294 299 300 301 302 305 305 319 319 322 316 318 328 326 330 339 328 330 330 329 324 322 347 354 4 297 264 165 198 189 208 170 147 168 188 205 204 214 199 192 194
283 290 285 293 292 296 294 302 300 307 310 316 301 318 293 323 322 291 325 322 327 334 332 347 340 341 295 354 285 287 273 304 204 220 217 150 146 135 143 160 168 190 188 189 196
279 285 287 293 290 290 299 298 304 303 308 298 314 312 319 323 325 321 323 329 328 328 336 327 332 338 354 354 358 182 289 299 223 240 220 159 156 160 168 167 169 186 184 192 195
281 282 286 292 291 293 303 290 302 303 309 315 309 311 318 317 313 329 324 325 325 322 328 329 338 356 354 352 340 271 298 225 302 214 193 161 164 154 171 185 114 149 190 186 192
277 279 282 289 292 294 295 297 307 307 312 312 315 314 316 318 316 322 321 313 327 320 328 328 333 357 353 338 348 282 281 287 291 202 167 161 159 166 148 137 126 133 164 192 199
282 289 282 284 286 292 293 297 298 302 308 313 309 317 325 326 315 313 318 321 328 328 330 344 337 354 351 345 343 269 287 216 198 210 164 168 161 144 139 128 127 120 128 177 198
276 274 280 281 285 294 291 296 300 301 296 304 304 310 310 312 313 316 320 307 329 330 326 334 343 353 348 349 341 283 244 254 208 203 160 175 158 145 142 141 145 140 152 148 175
280 284 278 280 286 288 296 297 298 296 303 304 308 313 310 310 316 324 316 318 315 315 346 348 356 354 347 341 286 278 273 303 206 197 169 159 152 153 161 146 164 163 158 172 171
269 271 281 281 298 296 292 292 311 303 305 303 304 309 307 310 326 315 321 319 326 324 348 348 355 350 347 341 306 321 271 206 204 169 177 160 168 150 161 160 164 153 156 183 178
271 278 286 277 286 285 302 301 294 303 299 305 303 305 300 309 304 315 317 321 326 338 332 329 336 355 345 286 335 277 268 213 196 175 177 169 166 177 158 163 158 167 174 181 173